Home > Weather > Rabat > Past weeks

Flag for Morocco Past Weather in Rabat, Morocco — Yesterday and Last 2 Weeks

Now
75 °F

Scattered clouds.


Feels Like: 77 °F
Forecast: 70 / 80 °F
Wind: 8 mph from Northwest

Location: Rabat-Sale

Current Time: Jul 29, 2016 at 7:01:16 PM

Latest Report: Jul 29, 2016 at 6:00 PM


Visibility: 4 mi

Pressure: 29.98 "Hg

Humidity: 69%

Dew Point: 64 °F

Location of RabatLocation

Past Weather in Rabat — Graph

°F

Rabat Temperature Yesterday

Maximum temperature yesterday: 77 °F (at 11:00 AM)
Minimum temperature yesterday: 66 °F (at 3:30 AM)
Average temperature yesterday: 72 °F

High & Low Weather Summary for the Past Weeks

 TemperatureHumidityPressure
High97 °F (Jul 19, 2:00 PM)94% (Jul 15, 2:30 AM)30.07 "Hg (Jul 15, 2:30 AM)
Low61 °F (Jul 23, 3:00 AM)28% (Jul 19, 2:00 PM)29.80 "Hg (Jul 16, 4:00 AM)
Average76 °F72%29.94 "Hg
* Reported Jul 14 6:00 PM — Jul 29 6:00 PM, Rabat, Weather by CustomWeather, © 2016

Note: Actual official high and low records may vary slightly from our data, if they occured in-between our weather recording intervals... More about our weather records

Advertising

Rabat Weather History for the Previous 24 Hours

Scroll right to see more
 ConditionsComfort  
Time TempWeatherWind HumidityBarometerVisibility
6:00 PM
Fri, Jul 29
75 °FScattered clouds.8 mph69%29.98 "Hg4 mi
5:30 PM77 °FScattered clouds.9 mph65%29.98 "Hg4 mi
5:00 PM77 °FScattered clouds.10 mph65%29.98 "Hg4 mi
4:30 PM77 °FScattered clouds.10 mph65%29.98 "Hg4 mi
4:00 PM77 °FScattered clouds.9 mph65%29.98 "Hg4 mi
3:30 PM77 °FScattered clouds.10 mph65%29.98 "Hg4 mi
3:00 PM77 °FScattered clouds.9 mph65%29.98 "Hg4 mi
2:30 PM77 °FPartly sunny.10 mph65%29.98 "Hg4 mi
2:00 PM77 °FOvercast.10 mph65%29.98 "Hg4 mi
1:30 PM75 °FOvercast.9 mph74%29.98 "Hg4 mi
1:00 PM75 °FOvercast.8 mph74%29.98 "Hg4 mi
12:30 PM75 °FOvercast.8 mph74%30.01 "Hg4 mi
12:00 PM75 °FOvercast.9 mph74%30.01 "Hg3 mi
11:30 AM73 °FOvercast.8 mph78%29.98 "Hg3 mi
11:00 AM73 °FPartly sunny.8 mph78%29.98 "Hg3 mi
10:30 AM73 °FPartly sunny.6 mph78%29.98 "Hg3 mi
10:00 AM73 °FPartly sunny.8 mph83%29.98 "Hg3 mi
9:30 AM73 °FPartly sunny.7 mph78%29.98 "Hg3 mi
9:00 AM72 °FPartly sunny.7 mph83%29.95 "Hg3 mi
8:30 AM72 °FBroken clouds.5 mph83%29.95 "Hg3 mi
8:00 AM72 °FBroken clouds.5 mph88%29.95 "Hg3 mi
7:30 AM72 °FBroken clouds.3 mph88%29.95 "Hg3 mi
7:00 AM70 °FBroken clouds.5 mph94%29.92 "Hg3 mi
6:30 AM70 °FPartly cloudy.2 mph94%29.92 "Hg3 mi
6:00 AM70 °FThunderstorms. Passing clouds.No wind88%29.92 "Hg3 mi
5:30 AM70 °FThunderstorms. Passing clouds.10 mph88%29.92 "Hg3 mi
5:00 AM72 °FThunderstorms. Passing clouds.8 mph83%29.95 "Hg3 mi
4:30 AM70 °FPassing clouds.3 mph88%29.92 "Hg4 mi
4:00 AM70 °FPassing clouds.5 mph88%29.89 "Hg4 mi
3:30 AM70 °FPassing clouds.6 mph88%29.92 "Hg4 mi
3:00 AM70 °FPassing clouds.5 mph88%29.92 "Hg4 mi
2:30 AM66 °FPassing clouds.No wind94%29.92 "Hg4 mi
2:00 AM66 °FPassing clouds.1 mph88%29.92 "Hg4 mi
1:30 AM68 °FPassing clouds.2 mph88%29.92 "Hg4 mi
1:00 AM68 °FPassing clouds.2 mph88%29.95 "Hg4 mi
12:30 AM68 °FPassing clouds.No wind88%29.95 "Hg4 mi
12:00 AM70 °FPassing clouds.3 mph88%29.95 "Hg4 mi
11:30 PM
Thu, Jul 28
70 °FPassing clouds.5 mph88%29.95 "Hg4 mi
11:00 PM68 °FPassing clouds.2 mph83%29.95 "Hg4 mi
10:30 PM68 °FPassing clouds.No wind88%29.95 "Hg4 mi
10:00 PM70 °FPassing clouds.2 mph83%29.95 "Hg4 mi
9:30 PM72 °FPassing clouds.1 mph78%29.95 "Hg4 mi
9:00 PM72 °FPassing clouds.3 mph78%29.95 "Hg4 mi
8:30 PM72 °FPassing clouds.3 mph78%29.95 "Hg4 mi
8:00 PM73 °FPassing clouds.3 mph74%29.95 "Hg4 mi
7:30 PM75 °FPassing clouds.6 mph69%29.95 "Hg4 mi
7:00 PM75 °FPassing clouds.8 mph69%29.92 "Hg4 mi
Weather by CustomWeather, © 2016

See weather overviewHow to use our weather pages